Caledonia, OH

5:54 PM EST on February 22, 2017 (GMT -0500)
Marion Municipal

Weather History for KMNN - November, 2012

Change the Weather History Date:

Saturday, November 17, 2012

  Actual Average (KDLZ) Record (KDLZ)
Temperature  
Mean Temperature 39 °F -  
Max Temperature 55 °F 49 °F 75 °F (1958)
Min Temperature 23 °F 29 °F 13 °F (1959)
Degree Days  
Heating Degree Days 26    
Moisture  
Dew Point 26 °F    
Average Humidity 84    
Maximum Humidity 100    
Minimum Humidity 40    
Precipitation  
Precipitation 0.00 in - - ()
Sea Level Pressure  
Sea Level Pressure 30.54 in    
Wind  
Wind Speed 1 mph (ENE)    
Max Wind Speed 9 mph    
Max Gust Speed -    
Visibility 4 miles    
Events Fog    
Averages and records for this station are not official NWS values.
T = Trace of Precipitation, MM = Missing Value Source: NWS Daily Summary

Daily Weather History Graph

Daily Weather History Graph

Search for Another Location

Airport or City:

Trip Planner

Search our weather history database for the weather conditions in past years. The results will help you decide how hot, cold, wet, or windy it might be!

Date:

Astronomy

Nov. 17, 2012 Rise Set
Actual Time 7:21 AM EST 5:12 PM EST
Civil Twilight 6:52 AM EST 5:41 PM EST
Nautical Twilight 6:19 AM EST 6:15 PM EST
Astronomical Twilight 5:46 AM EST 6:47 PM EST
Moon 11:05 AM EST (11/17) 9:21 PM EST (11/17)
Length of Visible Light 10h 49m
Length of Day
9h 50m
Waxing Crescent, 20% of the Moon is Illuminated
Nov 17
Waxing Crescent
Nov 20
First Quarter
Nov 28
Full
Dec 6
Last Quarter
Dec 13
New

Hourly Weather History & Observations

Time (EST) Temp. Windchill Dew Point Humidity Pressure Visibility Wind Dir Wind Speed Gust Speed Precip Events Conditions
12:43 AM 28.4 °F 24.6 °F 26.6 °F 93% 30.50 in 2.0 mi NE 3.5 mph - N/A   Clear
12:53 AM 28.0 °F - 27.0 °F 96% 30.53 in 2.0 mi Calm Calm - N/A   Clear
1:03 AM 28.4 °F - 26.6 °F 93% 30.49 in 1.8 mi Calm Calm - N/A   Clear
1:25 AM 26.6 °F - 26.6 °F 100% 30.50 in 3.0 mi Calm Calm - N/A   Clear
1:53 AM 28.9 °F - 27.0 °F 92% 30.53 in 3.0 mi Calm Calm - N/A   Clear
1:56 AM 28.4 °F - 26.6 °F 93% 30.50 in 1.5 mi Calm Calm - N/A   Clear
2:02 AM 28.4 °F - 26.6 °F 93% 30.50 in 0.8 mi Calm Calm - N/A   Clear
2:15 AM 26.6 °F - 26.6 °F 100% 30.50 in 1.0 mi Calm Calm - N/A   Clear
2:22 AM 26.6 °F - 24.8 °F 93% 30.50 in 0.2 mi Calm Calm - N/A Fog Light Freezing Fog
2:29 AM 28.4 °F - 26.6 °F 93% 30.50 in 0.2 mi Calm Calm - N/A Fog Light Freezing Fog
2:39 AM 26.6 °F - 26.6 °F 100% 30.50 in 0.8 mi Calm Calm - N/A   Clear
2:45 AM 26.6 °F - 26.6 °F 100% 30.50 in 1.2 mi Calm Calm - N/A   Clear
2:53 AM 28.0 °F - 26.1 °F 92% 30.54 in 1.8 mi Calm Calm - N/A   Clear
3:02 AM 28.4 °F - 26.6 °F 93% 30.51 in 2.0 mi Calm Calm - N/A   Clear
3:19 AM 26.6 °F - 24.8 °F 93% 30.51 in 1.5 mi Calm Calm - N/A   Partly Cloudy
3:21 AM 26.6 °F - 24.8 °F 93% 30.51 in 0.8 mi Calm Calm - N/A   Mist
3:36 AM 26.6 °F - 24.8 °F 93% 30.51 in 1.2 mi Calm Calm - N/A   Partly Cloudy
3:39 AM 26.6 °F - 24.8 °F 93% 30.51 in 0.8 mi Calm Calm - N/A   Mist
3:53 AM 24.1 °F - 24.1 °F 100% 30.54 in 0.2 mi Calm Calm - N/A Fog Light Freezing Fog
4:19 AM 24.8 °F - 23.0 °F 93% 30.51 in 0.2 mi Calm Calm - N/A Fog Light Freezing Fog
4:53 AM 24.1 °F - 23.0 °F 96% 30.55 in 0.2 mi Calm Calm - N/A Fog Light Freezing Fog
5:07 AM 24.8 °F - 23.0 °F 93% 30.52 in 1.2 mi Calm Calm - N/A   Clear
5:16 AM 24.8 °F - 24.8 °F 100% 30.52 in 3.0 mi Calm Calm - N/A   Clear
5:35 AM 24.8 °F - 24.8 °F 100% 30.53 in 2.5 mi Calm Calm - N/A   Clear
5:53 AM 25.0 °F - 21.9 °F 88% 30.57 in 3.0 mi Calm Calm - N/A   Clear
6:12 AM 24.8 °F 20.5 °F 23.0 °F 93% 30.54 in 2.5 mi NNW 3.5 mph - N/A   Partly Cloudy
6:34 AM 23.0 °F - 21.2 °F 93% 30.54 in 4.0 mi Calm Calm - N/A   Partly Cloudy
6:53 AM 24.1 °F - 21.9 °F 91% 30.58 in 1.8 mi Calm Calm - N/A   Clear
7:09 AM 24.8 °F - 21.2 °F 86% 30.55 in 0.8 mi Calm Calm - N/A   Clear
7:20 AM 24.8 °F 20.5 °F 21.2 °F 86% 30.55 in 0.2 mi NNE 3.5 mph - N/A Fog Light Freezing Fog
7:26 AM 23.0 °F - 21.2 °F 93% 30.55 in 1.0 mi Calm Calm - N/A   Clear
7:31 AM 23.0 °F - 21.2 °F 93% 30.55 in 2.0 mi Calm Calm - N/A   Clear
7:53 AM 25.0 °F - 23.0 °F 92% 30.61 in 3.0 mi Calm Calm - N/A   Clear
8:04 AM 26.6 °F - 24.8 °F 93% 30.56 in 2.5 mi Calm Calm - N/A   Clear
8:40 AM 30.2 °F - 28.4 °F 93% 30.57 in 3.0 mi Calm Calm - N/A   Clear
8:53 AM 30.9 °F - 30.0 °F 96% 30.62 in 3.0 mi Calm Calm - N/A   Clear
9:53 AM 42.1 °F 40.2 °F 28.9 °F 60% 30.61 in 10.0 mi East 3.5 mph - N/A   Clear
10:53 AM 46.9 °F - 30.9 °F 54% 30.62 in 10.0 mi SE 8.1 mph - N/A   Clear
11:53 AM 52.0 °F - 32.0 °F 47% 30.60 in 10.0 mi SE 5.8 mph - N/A   Clear
12:53 PM 54.0 °F - 32.0 °F 43% 30.58 in 10.0 mi ESE 5.8 mph - N/A   Clear
1:53 PM 55.0 °F - 30.9 °F 40% 30.56 in 10.0 mi Calm Calm - N/A   Clear
2:53 PM 55.9 °F - 32.0 °F 40% 30.54 in 10.0 mi ENE 8.1 mph - N/A   Clear
3:53 PM 54.0 °F - 30.9 °F 41% 30.54 in 10.0 mi NE 9.2 mph - N/A   Clear
4:53 PM 46.9 °F - 32.0 °F 56% 30.55 in 10.0 mi East 6.9 mph - N/A   Clear
5:53 PM 42.1 °F 37.1 °F 30.0 °F 62% 30.56 in 10.0 mi East 8.1 mph - N/A   Clear
6:53 PM 37.9 °F 32.7 °F 28.0 °F 68% 30.56 in 10.0 mi East 6.9 mph - N/A   Clear
7:53 PM 39.9 °F 35.8 °F 28.9 °F 65% 30.56 in 10.0 mi East 5.8 mph - N/A   Clear
8:53 PM 39.0 °F 35.7 °F 28.9 °F 67% 30.56 in 10.0 mi East 4.6 mph - N/A   Clear
9:53 PM 33.1 °F 27.7 °F 27.0 °F 78% 30.55 in 10.0 mi East 5.8 mph - N/A   Clear
10:53 PM 33.1 °F 30.0 °F 27.0 °F 78% 30.54 in 9.0 mi NE 3.5 mph - N/A   Clear
11:53 PM 32.0 °F 28.7 °F 26.1 °F 79% 30.53 in 10.0 mi NE 3.5 mph - N/A   Clear